Temperature
2 2 2 2 2 1 1 1 1 0 1 2 3 3 3 3 3 3 3 3 3 3 3 3 3 3 3 4 3 4 4 4 4 4 5 5 5 5
1 1 1 1 1 1 1 1 0 0 -0 1 1 2 2 2 2 2 2 3 3 3 3 3 3 3 3 3 3 3 3 3 3 4 4 4 4 5
1 1 1 1 1 1 0 0 0 -0 -1 0 1 1 1 1 1 1 2 2 2 2 2 2 2 2 2 2 2 2 2 3 3 3 3 4 4 4
0 0 0 0 0 0 0 -0 -0 -1 -1 -1 -0 -0 0 0 1 1 1 1 1 2 2 2 2 2 2 2 2 2 2 2 2 2 3 3 3 3
-1 -1 -1 -0 -0 -0 -0 -1 -1 -1 -1 -1 -1 -1 -1 -1 -0 -0 0 0 1 1 1 1 1 1 1 1 1 1 1 1 1 2 2 2 2 2
-2 -1 -1 -1 -1 -1 -1 -1 -1 -2 -2 -2 -2 -2 -2 -1 -1 -1 -1 -0 0 0 0 0 0 1 1 1 1 1 1 1 1 1 1 1 1 2
-2 -2 -2 -2 -2 -2 -2 -2 -2 -2 -2 -3 -3 -3 -2 -2 -2 -2 -2 -2 -1 -1 -1 -0 -0 -0 0 0 0 0 0 0 0 0 1 1 1 1
-3 -3 -3 -3 -3 -3 -3 -3 -3 -3 -3 -3 -3 -3 -3 -3 -3 -3 -3 -3 -3 -2 -2 -1 -1 -1 -1 -1 -0 -0 -0 -0 -0 -0 -0 -0 0 0
-4 -4 -4 -4 -4 -4 -3 -3 -3 -4 -4 -4 -4 -4 -4 -4 -4 -4 -3 -3 -3 -3 -3 -2 -2 -2 -1 -1 -1 -1 -1 -1 -1 -1 -1 -1 -1 -0
-5 -5 -5 -5 -4 -5 -4 -4 -4 -4 -4 -4 -4 -4 -4 -4 -4 -4 -4 -4 -4 -4 -4 -4 -3 -3 -2 -2 -2 -2 -2 -2 -2 -2 -2 -1 -1 -1
-6 -6 -6 -6 -5 -6 -6 -5 -5 -5 -5 -5 -5 -5 -5 -5 -5 -5 -5 -5 -5 -4 -4 -4 -4 -4 -3 -3 -2 -2 -3 -2 -2 -2 -2 -2 -2 -2
-6 -6 -6 -6 -6 -6 -6 -6 -6 -5 -5 -5 -5 -5 -5 -5 -5 -5 -5 -5 -6 -5 -5 -5 -5 -5 -5 -4 -3 -3 -3 -3 -3 -3 -3 -3 -2 -2
-7 -7 -7 -7 -7 -7 -7 -7 -6 -6 -6 -6 -6 -6 -5 -5 -6 -6 -6 -6 -6 -6 -5 -6 -5 -6 -6 -6 -5 -4 -4 -4 -4 -3 -3 -3 -3 -3
-8 -7 -7 -7 -7 -7 -7 -7 -7 -7 -7 -7 -7 -6 -6 -6 -6 -6 -6 -6 -6 -6 -6 -6 -6 -6 -6 -6 -6 -5 -5 -5 -4 -4 -4 -4 -4 -4
-8 -8 -8 -8 -8 -8 -8 -8 -8 -8 -7 -7 -7 -7 -7 -7 -6 -6 -6 -6 -6 -6 -6 -6 -7 -7 -7 -7 -7 -6 -6 -6 -5 -5 -5 -5 -5 -4
-8 -8 -8 -8 -8 -8 -8 -8 -8 -8 -8 -8 -8 -8 -8 -8 -7 -7 -7 -7 -7 -7 -7 -7 -7 -7 -7 -7 -7 -7 -7 -7 -7 -6 -6 -6 -5 -5
-9 -9 -9 -8 -8 -9 -9 -9 -9 -9 -9 -8 -8 -8 -8 -8 -8 -8 -8 -8 -8 -8 -7 -7 -7 -7 -8 -8 -8 -7 -7 -7 -7 -7 -7 -7 -6 -6
-9 -9 -9 -9 -9 -9 -9 -9 -9 -9 -9 -9 -9 -9 -9 -9 -9 -9 -9 -8 -8 -8 -8 -8 -8 -8 -8 -8 -8 -8 -8 -8 -8 -8 -8 -8 -7 -7
-10 -10 -10 -10 -10 -10 -10 -10 -10 -10 -10 -10 -10 -10 -10 -10 -10 -9 -9 -9 -9 -9 -9 -9 -9 -9 -9 -10 -9 -8 -9 -9 -8 -8 -8 -8 -8 -7
-11 -11 -11 -11 -11 -11 -10 -10 -10 -10 -10 -10 -10 -10 -10 -10 -10 -10 -10 -10 -9 -9 -9 -9 -9 -10 -10 -10 -10 -9 -9 -9 -9 -9 -9 -9 -9 -8
-11 -11 -11 -11 -11 -11 -11 -11 -11 -11 -11 -11 -11 -11 -11 -11 -11 -11 -10 -10 -10 -10 -10 -10 -10 -10 -10 -10 -10 -10 -9 -9 -9 -9 -9 -9 -9 -9
-12 -12 -12 -12 -12 -12 -12 -11 -11 -11 -11 -11 -11 -11 -11 -11 -11 -11 -11 -11 -11 -11 -10 -10 -10 -10 -11 -11 -11 -10 -10 -10 -9 -9 -9 -10 -10 -9
-12 -12 -12 -12 -12 -12 -12 -12 -12 -12 -11 -11 -11 -11 -11 -11 -11 -11 -11 -11 -11 -11 -11 -11 -11 -11 -11 -11 -11 -11 -10 -10 -10 -10 -10 -9 -10 -9
Wind_Speed
5 5 4 4 3 3 3 3 4 4 5 4 3 2 3 5 7 8 9 11 12 12 13 13 13 13 13 13 13 14 14 14 14 15 15 15 15 15
4 5 5 4 3 3 4 4 4 5 5 4 4 4 5 7 9 9 10 11 12 13 13 14 13 13 13 13 14 14 14 14 15 15 16 16 16 15
5 5 6 5 5 4 4 4 5 4 7 6 4 4 4 5 7 9 10 10 10 12 13 13 13 13 13 13 14 14 14 15 15 16 16 16 16 16
6 6 6 5 6 5 5 5 5 5 6 7 5 4 5 5 6 7 8 9 9 12 13 13 14 13 13 13 13 14 14 15 15 16 16 17 17 17
6 6 7 6 6 5 5 6 5 6 5 5 6 4 4 4 5 6 7 7 9 10 12 13 13 14 14 14 14 15 15 15 16 16 16 17 17 17
6 6 7 7 8 7 6 6 6 6 5 5 6 5 4 4 4 5 6 5 6 8 11 12 13 14 15 15 15 15 16 16 16 16 17 17 17 17
6 6 7 8 9 8 7 6 6 6 6 6 6 6 5 4 5 5 6 6 7 6 6 7 8 9 11 13 14 15 16 16 16 16 17 17 17 18
6 6 6 8 9 10 11 10 9 8 8 7 7 8 8 6 5 6 6 6 6 3 3 7 6 8 9 11 14 16 16 16 16 16 16 17 17 17
6 5 5 6 7 6 8 9 10 11 10 8 9 9 8 6 6 7 7 8 9 5 5 9 6 8 9 12 15 16 16 16 16 15 16 16 17 17
5 5 6 6 6 7 6 6 7 7 9 8 8 9 8 7 8 8 8 8 8 6 5 7 6 6 8 10 14 15 15 15 15 15 16 16 16 16
5 5 6 6 10 10 7 7 7 7 8 10 11 10 12 12 9 5 5 6 7 6 4 5 6 6 6 7 9 12 13 13 13 14 15 15 15 15
5 5 8 9 10 10 7 7 8 7 6 7 8 9 8 9 10 6 6 7 6 6 4 4 5 4 5 5 5 6 8 11 13 14 14 14 13 10
5 5 5 9 11 11 9 7 8 7 5 6 6 6 5 5 6 6 7 7 7 7 5 4 5 5 5 6 5 6 6 6 7 9 11 13 13 11
5 5 6 9 9 10 8 8 10 8 5 4 5 5 5 5 5 6 7 8 8 9 9 7 6 7 7 8 7 5 4 6 7 7 8 11 12 13
5 7 8 9 8 7 8 9 8 5 4 5 5 6 5 5 6 5 6 7 7 8 9 9 7 6 7 8 8 7 7 6 6 5 6 7 7 7
5 6 7 8 7 6 6 6 5 4 4 5 5 5 4 4 5 4 5 5 5 6 6 8 8 7 7 8 8 8 7 6 5 5 6 7 8 8
3 2 2 3 3 3 3 4 4 4 4 4 4 4 5 5 5 4 4 5 6 6 6 5 5 6 7 7 8 8 7 7 6 6 6 7 7 7
3 2 3 3 4 4 4 4 4 4 4 4 4 5 5 5 5 5 5 5 6 6 6 5 4 4 5 5 7 8 7 7 6 6 6 7 8 7
3 2 3 3 4 4 4 4 4 4 4 4 5 5 5 5 5 5 5 5 6 6 6 5 5 5 6 8 5 6 6 6 6 6 6 7 8 8
2 3 3 3 3 4 4 4 4 4 4 4 5 5 5 5 5 6 6 6 6 6 6 5 5 6 7 7 7 6 7 7 7 7 7 6 7 8
3 3 3 4 4 4 4 4 5 5 5 5 5 5 5 5 6 6 6 8 7 6 7 7 7 8 5 4 5 6 5 7 8 7 6 6 7 6
4 4 4 4 4 4 4 4 4 4 5 5 5 5 5 5 6 7 6 6 6 6 7 6 5 4 4 5 7 7 7 6 6 9 10 9 6 5
4 4 4 4 4 4 4 4 5 5 5 5 5 5 5 5 6 6 6 7 6 6 6 6 5 4 5 6 6 6 7 7 5 5 5 7 9 10
Wind_Direction
232 232 236 239 240 237 228 214 210 244 260 250 254 252 273 286 289 291 284 280 280 281 281 279 272 267 266 266 266 267 268 269 270 271 273 272 268 268
235 233 239 244 247 243 234 230 225 229 249 247 254 273 285 289 289 292 289 283 280 278 280 280 277 268 266 266 267 268 268 267 268 269 269 271 266 265
242 237 239 237 239 243 239 234 234 233 250 265 267 274 270 278 291 289 285 281 276 275 277 279 278 271 267 268 269 269 270 269 268 269 269 272 269 265
244 244 245 242 238 237 236 236 237 238 241 260 272 271 266 266 272 281 288 284 279 276 275 277 278 275 267 268 270 273 273 272 269 268 270 270 272 267
242 242 247 244 245 241 239 239 239 247 243 251 267 267 269 270 276 281 280 281 282 276 274 274 274 276 270 268 269 270 270 269 269 269 271 270 271 268
247 246 247 243 244 242 244 244 240 244 249 253 263 267 265 262 253 267 279 274 279 278 276 275 274 275 273 266 266 268 269 269 268 267 268 269 268 270
251 251 252 254 254 251 249 245 239 241 246 251 261 267 265 261 255 258 270 282 280 266 265 267 270 269 271 269 267 265 266 266 266 266 266 267 266 268
253 254 255 258 262 264 261 257 250 242 239 244 254 259 261 259 262 268 272 281 280 252 258 269 266 263 265 265 266 266 266 267 267 268 268 268 267 268
252 256 262 263 266 260 266 269 267 264 256 248 251 255 257 255 255 263 263 268 270 269 281 275 263 264 266 267 269 265 266 268 269 271 272 271 271 269
250 250 256 264 262 261 258 262 263 265 264 254 251 255 257 255 247 254 261 271 277 270 260 266 265 268 276 268 270 266 267 267 268 269 272 273 275 273
260 254 254 257 264 266 259 261 266 269 275 268 266 270 274 273 268 260 260 264 276 274 252 255 269 279 278 271 264 266 268 270 273 275 276 277 278 280
267 261 259 261 266 264 256 256 260 264 271 277 278 279 277 276 275 255 247 251 264 271 250 245 263 281 285 270 263 269 274 275 278 280 280 280 282 285
266 266 264 267 269 269 265 258 262 269 266 265 268 273 274 269 267 261 250 244 250 258 253 257 267 270 264 278 280 276 269 272 279 281 280 280 280 280
262 261 263 271 273 276 274 270 272 274 264 261 263 266 269 270 269 265 262 255 252 254 255 252 259 265 270 277 281 277 268 277 278 277 279 281 281 281
265 265 268 270 274 275 273 276 276 267 257 259 262 264 265 267 272 272 272 268 271 270 263 257 250 257 262 267 271 277 286 285 272 271 275 276 275 278
278 275 274 274 272 267 269 275 271 263 261 261 266 269 271 272 271 269 274 276 281 283 277 265 252 245 256 264 266 273 275 271 273 279 284 283 280 274
282 282 282 276 272 271 267 265 264 265 266 265 268 272 271 270 275 277 272 272 272 277 284 286 273 258 251 259 267 267 269 273 273 276 283 288 284 273
289 277 273 272 267 266 267 269 262 260 260 262 265 265 268 269 273 276 271 268 269 273 275 277 283 286 281 273 253 259 263 269 275 275 273 279 284 281
292 292 282 276 275 270 264 262 265 264 261 260 264 266 268 269 270 272 271 270 270 271 273 270 265 264 274 283 277 248 256 270 273 275 272 273 279 285
310 298 294 291 287 282 274 265 264 267 264 262 263 265 265 267 269 270 269 269 274 275 276 272 258 253 257 270 282 285 266 259 265 270 277 281 280 284
306 303 300 298 295 292 289 280 268 264 263 262 264 264 263 264 265 267 267 270 274 272 269 269 267 268 269 272 279 284 282 264 259 265 272 279 286 288
301 298 298 295 293 292 291 289 282 272 268 265 265 266 265 264 263 264 265 265 266 268 272 275 276 275 264 259 270 281 290 293 283 278 272 266 266 269
301 300 297 295 291 288 287 286 283 281 273 267 267 268 269 267 266 265 263 262 262 267 273 278 278 273 269 263 266 274 282 292 298 298 293 287 278 276
Height
1491 1492 1493 1493 1494 1495 1496 1497 1497 1494 1492 1492 1493 1494 1495 1495 1496 1496 1496 1496 1496 1496 1497 1497 1497 1497 1497 1498 1498 1498 1499 1499 1499 1500 1500 1501 1501 1502
1486 1487 1487 1488 1488 1490 1491 1491 1491 1491 1488 1486 1487 1488 1489 1489 1490 1489 1489 1490 1490 1490 1490 1490 1490 1491 1491 1491 1492 1492 1492 1492 1492 1492 1493 1494 1494 1495
1481 1481 1481 1482 1483 1484 1484 1485 1485 1485 1483 1481 1482 1482 1483 1483 1483 1483 1483 1483 1483 1483 1483 1484 1484 1484 1484 1484 1484 1484 1484 1485 1485 1485 1485 1486 1486 1487
1474 1475 1475 1476 1477 1477 1478 1478 1478 1479 1478 1475 1475 1476 1476 1476 1476 1476 1476 1476 1476 1476 1476 1476 1476 1476 1477 1477 1477 1477 1477 1477 1477 1477 1478 1478 1478 1479
1468 1468 1469 1470 1470 1471 1471 1471 1472 1472 1471 1470 1469 1469 1469 1470 1470 1470 1469 1469 1468 1469 1469 1469 1469 1469 1469 1469 1469 1470 1470 1470 1470 1470 1470 1470 1471 1471
1462 1462 1462 1463 1464 1464 1464 1465 1465 1465 1465 1464 1463 1463 1463 1463 1463 1462 1461 1461 1461 1461 1461 1461 1461 1461 1461 1461 1461 1462 1462 1462 1462 1462 1462 1463 1463 1463
1455 1455 1456 1456 1457 1458 1458 1459 1459 1459 1459 1458 1457 1456 1456 1456 1456 1455 1454 1453 1453 1453 1453 1453 1453 1453 1453 1453 1453 1453 1454 1454 1454 1454 1454 1455 1455 1455
1448 1449 1449 1450 1450 1451 1452 1452 1453 1453 1452 1452 1451 1450 1449 1450 1450 1449 1448 1447 1445 1446 1446 1445 1446 1444 1444 1445 1445 1445 1445 1445 1446 1446 1446 1446 1446 1447
1442 1442 1442 1443 1444 1444 1445 1445 1446 1446 1446 1446 1445 1443 1443 1444 1444 1442 1441 1440 1439 1439 1439 1436 1437 1436 1436 1436 1436 1437 1437 1437 1437 1438 1438 1438 1438 1438
1436 1436 1436 1436 1437 1438 1438 1438 1438 1438 1439 1439 1438 1437 1438 1437 1437 1436 1435 1434 1432 1432 1433 1429 1428 1428 1428 1428 1428 1428 1429 1429 1429 1429 1429 1430 1430 1429
1430 1430 1430 1430 1431 1432 1432 1431 1431 1431 1432 1432 1432 1431 1431 1431 1431 1430 1429 1428 1425 1424 1426 1424 1421 1420 1420 1419 1420 1420 1421 1421 1421 1420 1420 1420 1420 1420
1424 1424 1425 1424 1425 1426 1426 1425 1424 1424 1425 1425 1425 1425 1424 1424 1424 1423 1423 1421 1419 1417 1417 1418 1415 1415 1412 1411 1412 1413 1413 1413 1413 1412 1412 1411 1411 1411
1419 1418 1419 1419 1420 1420 1420 1419 1419 1419 1418 1418 1417 1417 1417 1417 1417 1417 1417 1416 1414 1411 1412 1412 1410 1409 1408 1404 1403 1404 1405 1404 1404 1403 1403 1403 1403 1403
1414 1413 1413 1414 1414 1414 1414 1413 1413 1414 1413 1412 1411 1410 1410 1410 1410 1410 1410 1409 1408 1406 1405 1406 1404 1403 1401 1399 1396 1395 1397 1397 1396 1395 1395 1394 1394 1394
1409 1408 1409 1409 1409 1408 1408 1408 1408 1408 1407 1406 1405 1404 1404 1404 1404 1403 1403 1402 1401 1400 1399 1399 1398 1397 1396 1394 1391 1389 1388 1388 1389 1388 1388 1387 1386 1385
1404 1404 1404 1403 1403 1403 1403 1402 1402 1402 1401 1400 1399 1399 1399 1398 1398 1397 1396 1396 1394 1393 1393 1392 1392 1391 1390 1388 1387 1384 1383 1382 1382 1382 1381 1379 1378 1378
1399 1399 1398 1398 1397 1397 1397 1397 1396 1396 1395 1395 1394 1394 1393 1393 1392 1392 1391 1390 1388 1386 1385 1385 1385 1385 1384 1383 1380 1379 1378 1377 1376 1375 1374 1372 1371 1371
1395 1394 1393 1392 1392 1392 1392 1391 1391 1390 1390 1390 1389 1389 1388 1387 1386 1386 1385 1384 1382 1381 1380 1379 1379 1378 1377 1375 1376 1374 1372 1371 1370 1370 1368 1366 1364 1364
1391 1389 1389 1388 1387 1387 1386 1386 1386 1385 1385 1385 1384 1383 1383 1382 1381 1380 1379 1378 1377 1376 1375 1374 1374 1373 1371 1368 1367 1369 1368 1366 1365 1363 1362 1361 1359 1358
1386 1385 1384 1384 1383 1382 1382 1381 1380 1380 1380 1380 1379 1378 1378 1377 1376 1374 1374 1373 1371 1370 1369 1368 1368 1368 1367 1365 1362 1361 1363 1362 1360 1358 1357 1355 1354 1353
1383 1382 1380 1380 1379 1378 1377 1376 1376 1375 1375 1374 1373 1373 1372 1371 1370 1369 1368 1367 1366 1365 1363 1362 1363 1363 1362 1361 1358 1355 1356 1356 1355 1354 1352 1350 1348 1346
1379 1378 1377 1376 1375 1374 1373 1372 1371 1370 1369 1369 1368 1367 1366 1366 1365 1364 1363 1362 1361 1360 1359 1358 1358 1357 1357 1355 1353 1351 1350 1349 1349 1349 1348 1347 1345 1342
1376 1375 1373 1372 1371 1370 1369 1368 1366 1365 1365 1364 1362 1362 1361 1360 1359 1358 1358 1357 1356 1355 1354 1353 1352 1351 1351 1350 1348 1347 1345 1344 1343 1342 1341 1341 1341 1339